Time,TemperatureF,DewpointF,PressureIn,WindDirection,WindDirectionDegrees,WindSpeedMPH,WindSpeedGustMPH,Humidity,HourlyPrecipIn,Conditions,Clouds,dailyrainin,SoftwareType,DateUTC
2016-07-23 00:04:00,76.2,68.0,29.77,WSW,250,5.0,10.0,75,0.00,,,0.00,weatherlink.com 1.10,2016-07-23 04:04:00,
2016-07-23 00:19:00,75.7,68.0,29.78,West,275,6.0,8.0,76,0.00,,,0.00,weatherlink.com 1.10,2016-07-23 04:19:00,
2016-07-23 00:34:00,75.3,68.0,29.77,West,263,2.0,9.0,77,0.00,,,0.00,weatherlink.com 1.10,2016-07-23 04:34:00,
2016-07-23 00:49:00,74.7,68.0,29.77,WSW,237,4.0,6.0,79,0.00,,,0.00,weatherlink.com 1.10,2016-07-23 04:49:00,
2016-07-23 01:05:00,74.2,67.0,29.77,WSW,241,2.0,5.0,79,0.00,,,0.00,weatherlink.com 1.10,2016-07-23 05:05:00,
2016-07-23 01:19:00,73.7,67.0,29.77,WSW,252,4.0,7.0,80,0.00,,,0.00,weatherlink.com 1.10,2016-07-23 05:19:00,
2016-07-23 01:49:00,72.7,67.0,29.77,WSW,254,3.0,10.0,81,0.00,,,0.00,weatherlink.com 1.10,2016-07-23 05:49:00,
2016-07-23 02:04:00,72.7,67.0,29.77,WSW,240,1.0,9.0,81,0.00,,,0.00,weatherlink.com 1.10,2016-07-23 06:04:00,
2016-07-23 02:19:00,73.2,66.0,29.77,WSW,254,3.0,10.0,78,0.00,,,0.00,weatherlink.com 1.10,2016-07-23 06:19:00,
2016-07-23 02:34:00,74.1,66.0,29.77,WNW,291,4.0,13.0,75,0.00,,,0.00,weatherlink.com 1.10,2016-07-23 06:34:00,
2016-07-23 02:50:00,73.5,66.0,29.77,NW,314,0.0,5.0,76,0.00,,,0.00,weatherlink.com 1.10,2016-07-23 06:50:00,
2016-07-23 03:04:00,72.4,65.0,29.77,NW,315,2.0,4.0,78,0.00,,,0.00,weatherlink.com 1.10,2016-07-23 07:04:00,
2016-07-23 03:19:00,71.2,65.0,29.77,NW,315,0.0,2.0,81,0.00,,,0.00,weatherlink.com 1.10,2016-07-23 07:19:00,
2016-07-23 03:35:00,69.9,65.0,29.77,NW,316,0.0,1.0,84,0.00,,,0.00,weatherlink.com 1.10,2016-07-23 07:35:00,
2016-07-23 03:50:00,68.8,65.0,29.77,NW,315,0.0,0.0,86,0.00,,,0.00,weatherlink.com 1.10,2016-07-23 07:50:00,
2016-07-23 04:05:00,67.9,64.0,29.77,NW,315,0.0,0.0,88,0.00,,,0.00,weatherlink.com 1.10,2016-07-23 08:05:00,
2016-07-23 04:20:00,67.6,64.0,29.76,NW,315,0.0,0.0,89,0.00,,,0.00,weatherlink.com 1.10,2016-07-23 08:20:00,
2016-07-23 04:35:00,67.1,64.0,29.76,NW,315,0.0,1.0,89,0.00,,,0.00,weatherlink.com 1.10,2016-07-23 08:35:00,
2016-07-23 04:50:00,66.7,64.0,29.77,NW,315,0.0,0.0,90,0.00,,,0.00,weatherlink.com 1.10,2016-07-23 08:50:00,
2016-07-23 05:05:00,66.2,64.0,29.77,NW,315,0.0,0.0,91,0.00,,,0.00,weatherlink.com 1.10,2016-07-23 09:05:00,
2016-07-23 05:20:00,65.9,64.0,29.77,NW,315,0.0,1.0,93,0.00,,,0.00,weatherlink.com 1.10,2016-07-23 09:20:00,
2016-07-23 05:35:00,65.5,64.0,29.77,NW,315,0.0,1.0,93,0.00,,,0.00,weatherlink.com 1.10,2016-07-23 09:35:00,
2016-07-23 05:50:00,65.1,63.0,29.77,NW,315,0.0,0.0,93,0.00,,,0.00,weatherlink.com 1.10,2016-07-23 09:50:00,
2016-07-23 06:05:00,65.2,63.0,29.78,NW,315,0.0,2.0,92,0.00,,,0.00,weatherlink.com 1.10,2016-07-23 10:05:00,
2016-07-23 06:20:00,66.0,63.0,29.79,NW,315,0.0,3.0,90,0.00,,,0.00,weatherlink.com 1.10,2016-07-23 10:20:00,
2016-07-23 06:35:00,66.9,63.0,29.78,NW,315,0.0,2.0,88,0.00,,,0.00,weatherlink.com 1.10,2016-07-23 10:35:00,
2016-07-23 06:50:00,66.5,63.0,29.78,NW,315,0.0,1.0,89,0.00,,,0.00,weatherlink.com 1.10,2016-07-23 10:50:00,
2016-07-23 07:05:00,66.7,63.0,29.78,NW,315,0.0,1.0,89,0.00,,,0.00,weatherlink.com 1.10,2016-07-23 11:05:00,
2016-07-23 07:20:00,67.7,63.0,29.78,NW,315,0.0,1.0,86,0.00,,,0.00,weatherlink.com 1.10,2016-07-23 11:20:00,
2016-07-23 07:35:00,68.7,64.0,29.78,NW,315,0.0,0.0,85,0.00,,,0.00,weatherlink.com 1.10,2016-07-23 11:35:00,
2016-07-23 07:50:00,71.1,64.0,29.79,WSW,248,4.0,9.0,79,0.00,,,0.00,weatherlink.com 1.10,2016-07-23 11:50:00,
2016-07-23 08:05:00,72.5,65.0,29.78,West,279,9.0,11.0,76,0.00,,,0.00,weatherlink.com 1.10,2016-07-23 12:05:00,
2016-07-23 08:20:00,73.3,65.0,29.79,NW,307,3.0,9.0,75,0.00,,,0.00,weatherlink.com 1.10,2016-07-23 12:20:00,
2016-07-23 08:35:00,74.0,65.0,29.79,NNW,329,2.0,14.0,73,0.00,,,0.00,weatherlink.com 1.10,2016-07-23 12:35:00,
2016-07-23 08:50:00,74.8,65.0,29.78,WNW,302,5.0,10.0,71,0.00,,,0.00,weatherlink.com 1.10,2016-07-23 12:50:00,
2016-07-23 09:05:00,75.8,65.0,29.77,WNW,294,7.0,14.0,70,0.00,,,0.00,weatherlink.com 1.10,2016-07-23 13:05:00,
2016-07-23 09:20:00,76.7,65.0,29.77,West,265,3.0,10.0,67,0.00,,,0.00,weatherlink.com 1.10,2016-07-23 13:20:00,
2016-07-23 09:35:00,76.9,65.0,29.77,NNW,338,8.0,12.0,66,0.00,,,0.00,weatherlink.com 1.10,2016-07-23 13:35:00,
2016-07-23 09:50:00,77.6,64.0,29.77,WNW,288,4.0,16.0,64,0.00,,,0.00,weatherlink.com 1.10,2016-07-23 13:50:00,
2016-07-23 10:05:00,77.8,64.0,29.78,North,360,5.0,15.0,63,0.00,,,0.00,weatherlink.com 1.10,2016-07-23 14:05:00,
2016-07-23 10:20:00,78.2,65.0,29.77,NNE,26,3.0,13.0,63,0.00,,,0.00,weatherlink.com 1.10,2016-07-23 14:20:00,